STARLINK-3238, 49734

Orbit data source: Space-Track

STARLINK-3238, 49734 is a payload satellite owned by SpaceX/Seattle (US) in LEO that was launched on Thu, 02 Dec 2021 UTC via an FALCON 9 launch vehicle from the Air Force Eastern Test Range (AFETR). Payload-class satellites include a variety of spacecraft equipped with specific instruments for various scientific and technological missions. These include communications satellites like Starlink; space stations such as the ISS; scientific satellites like the Hubble; Earth observation satellites from companies like Planet Labs, Umbra, and HawkEye 360; GPS; miniature CubeSats for education and research; and military/defense satellites.

Loading next visibility...
Identifier
49734, 2021-115L
Orbit
LEO
Country
Flag of USUS
Related business
Manufacturer
SpaceX/Seattle
Mission
Operational Commercial Communications
Bus & Motor
STARLINK, Unknown motor
Mass
290 kg wet, ~270 kg dry
Launch date (UTC)
2021-12-02 (5 years ago)
Launch vehicle
FALCON 9
Launch site
Air Force Eastern Test Range (AFETR)
Object type
Payload
Rocket body
Debris
Shape & HBR
Box + 1 Pan, 10.1 m
Radar Cross Section
13.562 m², Large (>1 m²)

Expand to show TLE details & history
Last TLE update: 2 days ago

TLE from 2 days ago
0 STARLINK-3238
1 49734U 21115L   26171.41668980  .00039495  00000-0  20849-2 0  9991
2 49734  53.1605  47.7786 0002078  59.8144  46.3158 15.15174511  5784
Epoch: 2026-06-20T10:00Z
TLE epoch observation values (Epoch: 2026-06-20T10:00:01.998Z)
Latitude
50.39005°
Longitude
104.94151°
Altitude
525.375 km
Speed
7.607 km/s
True Right ascension
10h 54m 19s
True Declination
50° 12' 55"
Sunlit
Object was in daylight at epoch
Visualization orbit readout
Latitude
Unknown
Longitude
Unknown
Altitude
Unknown
Speed
Unknown
Apparent Right ascension
Unknown
Apparent Declination
Unknown
Sunlit
N/A
Visualization observer readout
Local Sidereal Time
21:33:09
Azimuth
Unknown
Elevation
Unknown
Doppler factor
Unknown
Orbital elements
Apogee altitude
522.137 km
Perigee altitude
519.27 km
Semi-major axis
6,898.841 km
Eccentricity
0.00021
Inclination
53.1605°
RAAN
47.7786°
Arg. of periapsis
59.8144°
True anomaly
46.33302°
Mean anomaly
46.3158°
Eccentric anomaly
46.32441°
Mean motion
3.78773 °/min
Orbital period
95.04 mins
BSTAR
0.0020849
Loading maneuver chart data...
Computing Atmospheric mass density...
Loading historical data...
Loading historical data...
Loading historical data...
Loading historical data...
Loading historical data...
Loading historical data...
Loading historical data...

Documentation

Showing up to 5 results
|